Find STARLINK-37432

NORAD ID: 68896 Constellation: starlink operational
LEOCIRCULARRETROGRADE

实时位置

正在加载3D地球...

关于 STARLINK-37432

正在加载描述...

即将过境

Passes for default location (London). Set your location on the main map for personalized predictions.

高度历史

Loading altitude history...

两行轨道根数

1 68896U 26097B 26125.50001156 -.02334975 14943-2 -65058-2 0 9999
2 68896 97.2879 320.4856 0001608 83.8349 127.3223 15.93883623 2065
Epoch: May 5, 2026 • Age: 8 hours